Flag for Poland Weather past 2 weeks in Kalisz, Poland

Now
42 °F

Fog.


Feels Like: 37 °F
Forecast: 33 / 43 °F
Wind: 8 mph from Northeast

Location: Kalisz

Current Time: Oct 23, 2014 at 6:43:56 AM

Latest Report: Oct 23, 2014 at 6:00 AM


Visibility: 2 mi

Pressure: 29.95 "Hg

Humidity: 97%

Dew point: 42 °F

Location of KaliszLocation

Historic Weather in Kalisz — Graph

°F

Kalisz temperature yesterday

Maximum temperature yesterday: 52 °F (at 12:00 AM)
Minimum temperature yesterday: 46 °F (at 2:00 PM)
Average temperature yesterday: 49 °F

Past Weeks' High & Low Weather Summary

 TemperatureHumidityPressure
High76 °F (Oct 9, 3:00 PM)100% (Oct 14, 3:00 AM)30.32 "Hg (Oct 14, 3:00 AM)
Low43 °F (Oct 23, 5:00 AM)54% (Oct 9, 3:00 PM)29.50 "Hg (Oct 22, 4:00 AM)
Average57 °F89%29.90 "Hg
* Reported Oct 8 5:00 AM — Oct 23 5:00 AM, Kalisz, Weather by CustomWeather, © 2014

Note: Actual official high and low records may vary slightly from our data, if they occured in-between our weather recording intervals... More about our weather records

Advertising

Kalisz weather history for previous 24 hours

 ConditionsComfort  
Time TempWeatherWind HumidityBarometerVisibility
5:00 AM
Oct 23
43 °FFog.9 mph97%29.93 "Hg3 mi
4:00 AM44 °FLow clouds.9 mph96%29.90 "Hg3 mi
3:00 AM45 °FLight rain. Low clouds.10 mph96%29.88 "Hg4 mi
2:00 AM46 °FLight rain. Low clouds.9 mph96%29.85 "Hg4 mi
1:00 AM48 °FLight rain. Low clouds.9 mph96%29.82 "Hg4 mi
12:00 AM50 °FLight rain. Low clouds.12 mph94%29.78 "Hg3 mi
11:00 PM
Oct 22
51 °FLight rain. Low clouds.8 mph95%29.75 "Hg2 mi
10:00 PM52 °FLight rain. Low clouds.8 mph96%29.72 "Hg3 mi
9:00 PM51 °FLight rain. Low clouds.7 mph100%29.69 "Hg2 mi
8:00 PM47 °FLight rain. Low clouds.3 mph99%29.68 "Hg1 mi
7:00 PM47 °FLight rain. Low clouds.3 mph99%29.68 "Hg2 mi
6:00 PM47 °FRain. Low clouds.3 mph98%29.66 "Hg4 mi
5:00 PM47 °FLight rain. Low clouds.3 mph98%29.65 "Hg6 mi
4:00 PM46 °FRain. Low clouds.2 mph98%29.65 "Hg4 mi
3:00 PM46 °FRain. Low clouds.3 mph98%29.65 "Hg5 mi
2:00 PM46 °FRain. Low clouds.5 mph98%29.63 "Hg2 mi
1:00 PM46 °FLight rain. Low clouds.5 mph98%29.62 "Hg2 mi
12:00 PM47 °FLight rain. Low clouds.3 mph96%29.62 "Hg4 mi
11:00 AM47 °FLight rain. Low clouds.5 mph96%29.62 "Hg4 mi
10:00 AM47 °FLight rain. Low clouds.8 mph95%29.62 "Hg6 mi
9:00 AM48 °FLight rain. Low clouds.8 mph97%29.59 "Hg2 mi
8:00 AM49 °FDrizzle. Low clouds.6 mph97%29.57 "Hg2 mi
7:00 AM49 °FLight rain. Low clouds.7 mph95%29.56 "Hg4 mi
6:00 AM51 °FFog.3 mph91%29.50 "Hg6 mi
Weather by CustomWeather, © 2014

See weather overviewHow to use our weather pages